User: anonymous   Login
Location: Unspecified
(0.0000°N, 0.0000°E)
Time: 10:35:41
(UTC+00:00)
Language:

VELOX 1 - Orbit

View from above orbital plane
View from above orbital plane
View from above satellite
View from above satellite

Ground track
Ground track

The orbit data is extracted from the following two-line orbital elements,

1 40057U 14034E   18021.54184176 +.00000279 +00000-0 +46803-4 0  9999
2 40057 098.1946 130.1739 0012493 080.8421 279.4203 14.77326741191999
Epoch (UTC): 21 January 2018 13:00:15
Eccentricity: 0.0012493
inclination: 98.1946°
perigee height: 629 km
apogee height: 646 km
right ascension of ascending node: 130.1739°
argument of perigee: 80.8421°
revolutions per day: 14.77326741
mean anomaly at epoch: 279.4203°
orbit number at epoch: 19199

The dashed part of the orbit path shows where the satellite is in the earth's shadow,  

DLR